WUP848 KMSP-KF45

Flight info

Callsign WUP848
Flight time 3h 41m
Altitude 25000
Route ZMBRO7 ODI J30 SIBER DBQ KBNA DEBRL JESTR1
Aircraft B350/L-SBGRW/S

Departure

Time 2026-05-08 01:50
Airport Minneapolis–Saint Paul International Airport / Wold–Chamberlain Field (KMSP)

Arrival

Time 2026-05-08 05:32
Airport North Palm Beach County General Aviation Airport (KF45)
Time Latitude Longitude Altitude Speed Heading
2026-05-08 01:35 44.87726 -93.21667 825 ft 0 kts 269°
2026-05-08 01:45 44.87726 -93.21677 825 ft 3 kts 274°
2026-05-08 01:46 44.87758 -93.21641 824 ft 20 kts 102°
2026-05-08 01:46 44.87811 -93.21478 822 ft 19 kts 113°
2026-05-08 01:46 44.87717 -93.21255 819 ft 22 kts 121°
2026-05-08 01:46 44.87637 -93.21072 816 ft 26 kts 122°
2026-05-08 01:47 44.87534 -93.20834 813 ft 31 kts 121°
2026-05-08 01:47 44.87377 -93.20609 810 ft 22 kts 130°
2026-05-08 01:47 44.87290 -93.20413 808 ft 16 kts 108°
2026-05-08 01:48 44.87333 -93.20341 808 ft 0 kts 31°
2026-05-08 01:49 44.87344 -93.20332 808 ft 8 kts 32°
2026-05-08 01:50 44.87443 -93.20332 808 ft 22 kts 301°
2026-05-08 01:50 44.87644 -93.20791 813 ft 94 kts 301°
2026-05-08 01:50 44.88075 -93.21824 1010 ft 131 kts 298°
2026-05-08 01:50 44.88543 -93.22995 1510 ft 142 kts 300°
2026-05-08 01:51 44.89111 -93.24352 1963 ft 160 kts 300°
2026-05-08 01:51 44.89715 -93.25753 2581 ft 165 kts 301°
2026-05-08 01:51 44.89975 -93.27386 3240 ft 169 kts 262°
2026-05-08 01:51 44.89314 -93.28767 3849 ft 177 kts 218°
2026-05-08 01:52 44.88074 -93.29140 4374 ft 189 kts 174°
2026-05-08 01:52 44.86853 -93.28227 4876 ft 198 kts 140°
2026-05-08 01:52 44.85873 -93.26755 5398 ft 202 kts 132°
2026-05-08 01:52 44.84897 -93.25182 5962 ft 205 kts 134°
2026-05-08 01:53 44.83876 -93.23651 6525 ft 206 kts 136°
2026-05-08 01:53 44.82826 -93.22144 7065 ft 207 kts 137°
2026-05-08 01:53 44.81752 -93.20642 7576 ft 210 kts 138°
2026-05-08 01:53 44.80665 -93.19144 8090 ft 214 kts 138°
2026-05-08 01:54 44.79573 -93.17651 8625 ft 216 kts 138°
2026-05-08 01:54 44.78473 -93.16155 9141 ft 218 kts 138°
2026-05-08 01:54 44.77367 -93.14655 9626 ft 220 kts 138°
2026-05-08 01:54 44.76215 -93.13097 10128 ft 222 kts 138°
2026-05-08 01:55 44.75074 -93.11555 10614 ft 224 kts 138°
2026-05-08 01:55 44.73938 -93.10021 11122 ft 229 kts 138°
2026-05-08 01:55 44.72752 -93.08422 11680 ft 230 kts 137°
2026-05-08 01:55 44.71573 -93.06832 12231 ft 232 kts 137°
2026-05-08 01:56 44.70401 -93.05250 12765 ft 233 kts 137°
2026-05-08 01:56 44.69221 -93.03661 13292 ft 233 kts 137°
2026-05-08 01:56 44.68051 -93.02086 13780 ft 234 kts 137°
2026-05-08 01:56 44.66851 -93.00474 14259 ft 236 kts 137°
2026-05-08 01:57 44.65663 -92.98877 14699 ft 238 kts 137°
2026-05-08 01:57 44.64441 -92.97237 15135 ft 240 kts 137°
2026-05-08 01:57 44.63226 -92.95609 15563 ft 242 kts 137°
2026-05-08 01:57 44.61989 -92.93950 15980 ft 244 kts 137°
2026-05-08 01:58 44.60758 -92.92300 16390 ft 245 kts 137°
2026-05-08 01:58 44.59510 -92.90629 16820 ft 246 kts 137°
2026-05-08 01:58 44.58252 -92.88946 17205 ft 248 kts 137°
2026-05-08 01:58 44.56988 -92.87256 17565 ft 250 kts 137°
2026-05-08 01:59 44.55718 -92.85558 17933 ft 251 kts 137°
2026-05-08 01:59 44.54439 -92.83850 18294 ft 252 kts 138°
2026-05-08 01:59 44.53150 -92.82130 18658 ft 253 kts 138°
2026-05-08 01:59 44.51865 -92.80417 18996 ft 254 kts 138°
2026-05-08 02:00 44.50575 -92.78696 19340 ft 255 kts 138°
2026-05-08 02:00 44.49273 -92.76962 19683 ft 255 kts 138°
2026-05-08 02:00 44.47957 -92.75210 19994 ft 256 kts 137°
2026-05-08 02:00 44.46662 -92.73418 20308 ft 257 kts 131°
2026-05-08 02:01 44.45558 -92.71412 20609 ft 258 kts 121°
2026-05-08 02:01 44.44607 -92.69246 20918 ft 258 kts 117°
2026-05-08 02:01 44.43678 -92.67049 21218 ft 258 kts 117°
2026-05-08 02:01 44.42753 -92.64871 21496 ft 259 kts 117°
2026-05-08 02:02 44.41824 -92.62692 21775 ft 260 kts 117°
2026-05-08 02:02 44.40880 -92.60480 22061 ft 262 kts 117°
2026-05-08 02:02 44.39939 -92.58279 22383 ft 263 kts 117°
2026-05-08 02:02 44.38979 -92.56035 22716 ft 263 kts 117°
2026-05-08 02:03 44.38034 -92.53831 23032 ft 263 kts 118°
2026-05-08 02:03 44.37075 -92.51595 23343 ft 263 kts 117°
2026-05-08 02:03 44.36127 -92.49385 23628 ft 264 kts 117°
2026-05-08 02:03 44.35170 -92.47156 23898 ft 266 kts 118°
2026-05-08 02:04 44.34197 -92.44896 24167 ft 267 kts 117°
2026-05-08 02:04 44.33233 -92.42657 24452 ft 266 kts 117°
2026-05-08 02:04 44.32257 -92.40389 24731 ft 267 kts 118°
2026-05-08 02:04 44.31278 -92.38116 24907 ft 275 kts 117°
2026-05-08 02:05 44.30249 -92.35729 24934 ft 290 kts 118°
2026-05-08 02:05 44.29176 -92.33244 24932 ft 304 kts 119°
2026-05-08 02:05 44.28038 -92.30610 24931 ft 318 kts 119°
2026-05-08 02:05 44.26859 -92.27889 24932 ft 331 kts 120°
2026-05-08 02:06 44.25625 -92.25040 24930 ft 342 kts 120°
2026-05-08 02:06 44.24361 -92.22128 24928 ft 352 kts 120°
2026-05-08 02:06 44.23056 -92.19122 24926 ft 360 kts 120°
2026-05-08 02:06 44.21714 -92.16032 24925 ft 368 kts 120°
2026-05-08 02:07 44.20369 -92.12942 24921 ft 374 kts 120°
2026-05-08 02:07 44.18982 -92.09755 24923 ft 378 kts 120°
2026-05-08 02:07 44.17564 -92.06502 24922 ft 383 kts 120°
2026-05-08 02:07 44.16158 -92.03278 24923 ft 386 kts 120°
2026-05-08 02:08 44.14739 -92.00030 24926 ft 389 kts 120°
2026-05-08 02:08 44.13304 -91.96748 24927 ft 391 kts 120°
2026-05-08 02:08 44.11860 -91.93450 24926 ft 393 kts 120°
2026-05-08 02:08 44.10430 -91.90186 24927 ft 395 kts 120°
2026-05-08 02:09 44.08976 -91.86872 24929 ft 397 kts 120°
2026-05-08 02:09 44.07500 -91.83513 24928 ft 398 kts 121°
2026-05-08 02:09 44.06019 -91.80146 24928 ft 399 kts 120°
2026-05-08 02:09 44.04551 -91.76812 24938 ft 400 kts 120°
2026-05-08 02:10 44.03079 -91.73471 24939 ft 402 kts 121°
2026-05-08 02:10 44.01592 -91.70104 24940 ft 403 kts 120°
2026-05-08 02:10 44.00105 -91.66738 24939 ft 402 kts 120°
2026-05-08 02:10 43.98606 -91.63350 24940 ft 402 kts 120°
2026-05-08 02:11 43.97125 -91.60005 24938 ft 403 kts 120°
2026-05-08 02:11 43.95629 -91.56632 24940 ft 402 kts 121°
2026-05-08 02:11 43.94135 -91.53265 24937 ft 402 kts 120°
2026-05-08 02:11 43.92636 -91.49947 24933 ft 403 kts 122°
2026-05-08 02:12 43.90974 -91.46755 24941 ft 403 kts 128°
2026-05-08 02:12 43.89098 -91.43742 24931 ft 402 kts 135°
2026-05-08 02:12 43.87091 -91.40928 24931 ft 402 kts 136°
2026-05-08 02:12 43.85132 -91.38168 24936 ft 402 kts 136°
2026-05-08 02:13 43.83125 -91.35343 24930 ft 401 kts 136°
2026-05-08 02:13 43.81122 -91.32529 24922 ft 401 kts 137°
2026-05-08 02:13 43.79085 -91.29770 24911 ft 398 kts 144°
2026-05-08 02:13 43.76705 -91.27853 24925 ft 384 kts 167°
2026-05-08 02:14 43.74156 -91.26685 24929 ft 380 kts 171°
2026-05-08 02:14 43.71574 -91.25618 24938 ft 379 kts 172°
2026-05-08 02:14 43.68992 -91.24581 24931 ft 379 kts 172°
2026-05-08 02:14 43.66456 -91.23544 24924 ft 379 kts 171°
2026-05-08 02:15 43.63879 -91.22476 24931 ft 379 kts 171°
2026-05-08 02:15 43.61297 -91.21396 24927 ft 379 kts 171°
2026-05-08 02:15 43.58746 -91.20323 24934 ft 379 kts 171°
2026-05-08 02:15 43.56188 -91.19244 24931 ft 379 kts 171°
2026-05-08 02:16 43.53609 -91.18153 24932 ft 379 kts 171°
2026-05-08 02:16 43.51072 -91.17079 24933 ft 378 kts 171°
2026-05-08 02:16 43.48514 -91.15997 24932 ft 378 kts 171°
2026-05-08 02:16 43.45972 -91.14922 24935 ft 378 kts 171°
2026-05-08 02:17 43.43423 -91.13843 24927 ft 379 kts 171°
2026-05-08 02:17 43.40861 -91.12760 24926 ft 379 kts 171°
2026-05-08 02:17 43.38302 -91.11679 24923 ft 379 kts 171°
2026-05-08 02:17 43.35726 -91.10591 24918 ft 379 kts 171°
2026-05-08 02:18 43.33170 -91.09513 24919 ft 379 kts 171°
2026-05-08 02:18 43.30591 -91.08425 24921 ft 379 kts 171°
2026-05-08 02:18 43.28046 -91.07354 24917 ft 379 kts 171°
2026-05-08 02:18 43.25501 -91.06283 24916 ft 379 kts 171°
2026-05-08 02:19 43.22943 -91.05207 24915 ft 379 kts 171°
2026-05-08 02:19 43.20381 -91.04131 24922 ft 379 kts 171°
2026-05-08 02:19 43.17823 -91.03058 24919 ft 379 kts 171°
2026-05-08 02:19 43.15254 -91.01981 24921 ft 379 kts 171°
2026-05-08 02:20 43.12727 -91.00922 24922 ft 379 kts 171°
2026-05-08 02:20 43.10131 -90.99834 24929 ft 379 kts 171°
2026-05-08 02:20 43.07583 -90.98769 24937 ft 379 kts 171°
2026-05-08 02:20 43.05045 -90.97708 24942 ft 378 kts 171°
2026-05-08 02:21 43.02501 -90.96646 24940 ft 379 kts 171°
2026-05-08 02:21 42.99919 -90.95570 24939 ft 379 kts 171°
2026-05-08 02:21 42.97371 -90.94508 24935 ft 378 kts 171°
2026-05-08 02:21 42.94834 -90.93451 24938 ft 378 kts 171°
2026-05-08 02:22 42.92289 -90.92392 24944 ft 378 kts 171°
2026-05-08 02:22 42.89717 -90.91323 24936 ft 379 kts 171°
2026-05-08 02:22 42.87141 -90.90253 24929 ft 378 kts 171°
2026-05-08 02:22 42.84607 -90.89201 24932 ft 377 kts 171°
2026-05-08 02:23 42.82059 -90.88145 24931 ft 377 kts 171°
2026-05-08 02:23 42.79530 -90.87096 24941 ft 376 kts 171°
2026-05-08 02:23 42.76985 -90.86043 24930 ft 376 kts 171°
2026-05-08 02:23 42.74436 -90.84990 24925 ft 376 kts 171°
2026-05-08 02:24 42.71883 -90.83935 24929 ft 376 kts 171°
2026-05-08 02:24 42.69353 -90.82890 24920 ft 375 kts 171°
2026-05-08 02:24 42.66845 -90.81856 24923 ft 375 kts 171°
2026-05-08 02:24 42.64327 -90.80818 24925 ft 375 kts 171°
2026-05-08 02:25 42.61781 -90.79769 24924 ft 375 kts 171°
2026-05-08 02:25 42.59224 -90.78717 24926 ft 374 kts 171°
2026-05-08 02:25 42.56706 -90.77683 24926 ft 374 kts 171°
2026-05-08 02:25 42.54172 -90.76641 24933 ft 374 kts 171°
2026-05-08 02:26 42.51614 -90.75591 24927 ft 374 kts 171°
2026-05-08 02:26 42.49086 -90.74555 24933 ft 373 kts 171°
2026-05-08 02:26 42.46574 -90.73526 24934 ft 373 kts 171°
2026-05-08 02:26 42.44015 -90.72478 24932 ft 373 kts 171°
2026-05-08 02:27 42.41491 -90.71355 24929 ft 376 kts 167°
2026-05-08 02:27 42.39008 -90.69996 24936 ft 379 kts 163°
2026-05-08 02:27 42.36591 -90.68383 24937 ft 382 kts 159°
2026-05-08 02:27 42.34237 -90.66705 24941 ft 382 kts 159°
2026-05-08 02:28 42.31842 -90.64999 24929 ft 382 kts 158°
2026-05-08 02:28 42.29437 -90.63289 24933 ft 382 kts 159°
2026-05-08 02:28 42.27074 -90.61611 24930 ft 382 kts 158°
2026-05-08 02:28 42.24691 -90.59921 24936 ft 382 kts 159°
2026-05-08 02:29 42.22311 -90.58236 24943 ft 382 kts 159°
2026-05-08 02:29 42.19922 -90.56545 24932 ft 382 kts 158°
2026-05-08 02:29 42.17510 -90.54841 24933 ft 382 kts 158°
2026-05-08 02:29 42.15157 -90.53179 24938 ft 382 kts 159°
2026-05-08 02:30 42.12749 -90.51480 24935 ft 382 kts 158°
2026-05-08 02:30 42.10359 -90.49796 24938 ft 382 kts 159°
2026-05-08 02:30 42.07989 -90.48126 24935 ft 382 kts 159°
2026-05-08 02:30 42.05603 -90.46447 24935 ft 381 kts 158°
2026-05-08 02:31 42.03222 -90.44773 24943 ft 381 kts 159°
2026-05-08 02:31 42.00837 -90.43098 24946 ft 381 kts 159°
2026-05-08 02:31 41.98451 -90.41424 24944 ft 381 kts 159°
2026-05-08 02:31 41.96082 -90.39762 24940 ft 381 kts 159°
2026-05-08 02:32 41.93680 -90.38079 24947 ft 381 kts 159°
2026-05-08 02:32 41.91294 -90.36408 24954 ft 381 kts 159°
2026-05-08 02:32 41.88907 -90.34739 24941 ft 381 kts 160°
2026-05-08 02:32 41.86488 -90.33048 24931 ft 380 kts 160°
2026-05-08 02:33 41.84082 -90.31368 24925 ft 380 kts 160°
2026-05-08 02:33 41.81721 -90.29720 24920 ft 379 kts 160°
2026-05-08 02:33 41.79338 -90.28059 24940 ft 377 kts 160°
2026-05-08 02:33 41.76997 -90.26428 24931 ft 377 kts 160°
2026-05-08 02:34 41.74630 -90.24781 24928 ft 377 kts 160°
2026-05-08 02:34 41.72265 -90.23136 24925 ft 376 kts 160°
2026-05-08 02:34 41.69931 -90.21515 24930 ft 376 kts 160°
2026-05-08 02:34 41.67589 -90.19889 24928 ft 376 kts 159°
2026-05-08 02:35 41.65260 -90.18273 24933 ft 376 kts 159°
2026-05-08 02:35 41.62877 -90.16621 24929 ft 375 kts 160°
2026-05-08 02:35 41.60542 -90.15005 24937 ft 375 kts 160°
2026-05-08 02:35 41.58159 -90.13356 24929 ft 374 kts 160°
2026-05-08 02:36 41.55843 -90.11755 24927 ft 374 kts 160°
2026-05-08 02:36 41.53501 -90.10137 24934 ft 374 kts 160°
2026-05-08 02:36 41.51152 -90.08516 24938 ft 374 kts 160°
2026-05-08 02:36 41.48833 -90.06917 24934 ft 374 kts 160°
2026-05-08 02:37 41.46485 -90.05299 24934 ft 374 kts 160°
2026-05-08 02:37 41.44133 -90.03680 24932 ft 374 kts 160°
2026-05-08 02:37 41.41801 -90.02075 24933 ft 373 kts 160°
2026-05-08 02:37 41.39465 -90.00470 24935 ft 373 kts 160°
2026-05-08 02:38 41.37135 -89.98869 24933 ft 373 kts 160°
2026-05-08 02:38 41.34811 -89.97274 24945 ft 373 kts 160°
2026-05-08 02:38 41.32455 -89.95659 24942 ft 373 kts 160°
2026-05-08 02:38 41.30132 -89.94067 24945 ft 373 kts 160°
2026-05-08 02:39 41.27777 -89.92455 24948 ft 373 kts 160°
2026-05-08 02:39 41.25451 -89.90865 24949 ft 374 kts 160°
2026-05-08 02:39 41.23103 -89.89260 24948 ft 373 kts 160°
2026-05-08 02:39 41.20776 -89.87671 24955 ft 373 kts 160°
2026-05-08 02:40 41.18401 -89.86050 24959 ft 373 kts 160°
2026-05-08 02:40 41.16040 -89.84441 24959 ft 374 kts 160°
2026-05-08 02:40 41.13697 -89.82845 24963 ft 374 kts 160°
2026-05-08 02:40 41.11361 -89.81255 24959 ft 374 kts 160°
2026-05-08 02:41 41.09052 -89.79684 24959 ft 374 kts 160°
2026-05-08 02:41 41.06657 -89.78057 24955 ft 374 kts 160°
2026-05-08 02:41 41.04307 -89.76461 24952 ft 374 kts 160°
2026-05-08 02:41 41.01973 -89.74878 24959 ft 374 kts 160°
2026-05-08 02:42 40.99628 -89.73288 24958 ft 374 kts 160°
2026-05-08 02:42 40.97287 -89.71702 24963 ft 374 kts 160°
2026-05-08 02:42 40.94957 -89.70125 24956 ft 374 kts 160°
2026-05-08 02:42 40.92561 -89.68504 24960 ft 374 kts 160°
2026-05-08 02:43 40.90253 -89.66945 24964 ft 374 kts 160°
2026-05-08 02:43 40.87856 -89.65327 24955 ft 374 kts 160°
2026-05-08 02:43 40.85492 -89.63731 24956 ft 374 kts 160°
2026-05-08 02:43 40.83142 -89.62147 24961 ft 373 kts 160°
2026-05-08 02:44 40.80797 -89.60567 24963 ft 373 kts 160°
2026-05-08 02:44 40.78456 -89.58991 24958 ft 373 kts 160°
2026-05-08 02:44 40.76121 -89.57421 24959 ft 373 kts 160°
2026-05-08 02:44 40.73770 -89.55842 24959 ft 373 kts 160°
2026-05-08 02:45 40.71416 -89.54261 24966 ft 373 kts 160°
2026-05-08 02:45 40.69065 -89.52684 24965 ft 372 kts 160°
2026-05-08 02:45 40.66748 -89.51131 24964 ft 372 kts 160°
2026-05-08 02:45 40.64390 -89.49551 24963 ft 372 kts 161°
2026-05-08 02:46 40.62072 -89.48000 24962 ft 373 kts 160°
2026-05-08 02:46 40.59727 -89.46432 24966 ft 372 kts 161°
2026-05-08 02:46 40.57398 -89.44875 24971 ft 373 kts 160°
2026-05-08 02:46 40.55060 -89.43314 24966 ft 373 kts 160°
2026-05-08 02:47 40.52690 -89.41733 24969 ft 372 kts 161°
2026-05-08 02:47 40.50350 -89.40173 24964 ft 373 kts 160°
2026-05-08 02:47 40.48006 -89.38612 24973 ft 373 kts 160°
2026-05-08 02:47 40.45643 -89.37039 24965 ft 373 kts 161°
2026-05-08 02:48 40.43309 -89.35487 24969 ft 373 kts 160°
2026-05-08 02:48 40.40951 -89.33920 24963 ft 373 kts 161°
2026-05-08 02:48 40.38622 -89.32373 24964 ft 372 kts 161°
2026-05-08 02:48 40.36276 -89.30815 24962 ft 371 kts 161°
2026-05-08 02:49 40.33935 -89.29264 24962 ft 370 kts 161°
2026-05-08 02:49 40.31593 -89.27711 24966 ft 370 kts 161°
2026-05-08 02:49 40.29252 -89.26163 24965 ft 370 kts 161°
2026-05-08 02:49 40.26911 -89.24614 24966 ft 370 kts 161°
2026-05-08 02:50 40.24600 -89.23086 24966 ft 370 kts 161°
2026-05-08 02:50 40.22254 -89.21537 24976 ft 369 kts 161°
2026-05-08 02:50 40.19950 -89.20016 24979 ft 369 kts 161°
2026-05-08 02:50 40.17636 -89.18491 24973 ft 369 kts 161°
2026-05-08 02:51 40.15282 -89.16940 24974 ft 369 kts 162°
2026-05-08 02:51 40.12939 -89.15398 24975 ft 369 kts 162°
2026-05-08 02:51 40.10614 -89.13868 24983 ft 368 kts 162°
2026-05-08 02:51 40.08284 -89.12336 24973 ft 369 kts 162°
2026-05-08 02:52 40.05988 -89.10828 24978 ft 368 kts 161°
2026-05-08 02:52 40.03672 -89.09309 24980 ft 368 kts 162°
2026-05-08 02:52 40.01364 -89.07796 24982 ft 368 kts 162°
2026-05-08 02:52 39.99034 -89.06268 24985 ft 368 kts 162°
2026-05-08 02:53 39.96715 -89.04749 24987 ft 368 kts 162°
2026-05-08 02:53 39.94385 -89.03225 24988 ft 368 kts 162°
2026-05-08 02:53 39.92071 -89.01712 24988 ft 368 kts 162°
2026-05-08 02:53 39.89746 -89.00193 24988 ft 368 kts 162°
2026-05-08 02:54 39.87415 -88.98672 24980 ft 368 kts 162°
2026-05-08 02:54 39.85083 -88.97150 24981 ft 367 kts 162°
2026-05-08 02:54 39.82761 -88.95636 24980 ft 367 kts 162°
2026-05-08 02:54 39.80455 -88.94134 24998 ft 367 kts 162°
2026-05-08 02:55 39.78143 -88.92629 24995 ft 367 kts 162°
2026-05-08 02:55 39.73510 -88.89618 24997 ft 367 kts 162°
2026-05-08 02:55 39.71196 -88.88115 25009 ft 367 kts 162°
2026-05-08 02:56 39.68875 -88.86610 25003 ft 367 kts 162°
2026-05-08 02:56 39.66576 -88.85118 25001 ft 367 kts 163°
2026-05-08 02:56 39.64231 -88.83599 25007 ft 367 kts 163°
2026-05-08 02:56 39.61907 -88.82095 25003 ft 367 kts 162°
2026-05-08 02:57 39.59594 -88.80598 25002 ft 367 kts 162°
2026-05-08 02:57 39.57282 -88.79105 24992 ft 368 kts 162°
2026-05-08 02:57 39.54957 -88.77602 25001 ft 368 kts 162°
2026-05-08 02:57 39.52635 -88.76104 25001 ft 368 kts 163°
2026-05-08 02:58 39.50339 -88.74623 25002 ft 368 kts 163°
2026-05-08 02:58 39.47991 -88.73109 25001 ft 368 kts 163°
2026-05-08 02:58 39.45674 -88.71618 25007 ft 368 kts 163°
2026-05-08 02:58 39.43366 -88.70132 25012 ft 368 kts 163°
2026-05-08 02:59 39.41026 -88.68628 25009 ft 368 kts 163°
2026-05-08 02:59 39.38694 -88.67129 25013 ft 367 kts 163°
2026-05-08 02:59 39.36408 -88.65662 25015 ft 368 kts 163°
2026-05-08 02:59 39.34087 -88.64172 25012 ft 368 kts 163°
2026-05-08 03:00 39.31733 -88.62663 25013 ft 367 kts 163°
2026-05-08 03:00 39.29445 -88.61198 25017 ft 368 kts 163°
2026-05-08 03:00 39.27105 -88.59699 25003 ft 368 kts 163°
2026-05-08 03:00 39.24799 -88.58225 25016 ft 367 kts 163°
2026-05-08 03:01 39.22481 -88.56742 25033 ft 367 kts 164°
2026-05-08 03:01 39.20164 -88.55263 25018 ft 368 kts 163°
2026-05-08 03:01 39.17834 -88.53776 25037 ft 368 kts 163°
2026-05-08 03:01 39.15499 -88.52287 25030 ft 368 kts 163°
2026-05-08 03:02 39.13161 -88.50796 25022 ft 368 kts 164°
2026-05-08 03:02 39.10790 -88.49287 25022 ft 368 kts 164°
2026-05-08 03:02 39.08499 -88.47829 25024 ft 368 kts 164°
2026-05-08 03:02 39.06150 -88.46335 25031 ft 367 kts 164°
2026-05-08 03:03 39.03829 -88.44861 25025 ft 367 kts 164°
2026-05-08 03:03 39.01503 -88.43384 25033 ft 367 kts 164°
2026-05-08 03:03 38.99186 -88.41914 25040 ft 367 kts 164°
2026-05-08 03:03 38.96848 -88.40432 25030 ft 368 kts 164°
2026-05-08 03:04 38.94533 -88.38965 25028 ft 368 kts 164°
2026-05-08 03:04 38.92192 -88.37483 25040 ft 368 kts 164°
2026-05-08 03:04 38.89836 -88.35992 25040 ft 369 kts 164°
2026-05-08 03:04 38.87473 -88.34499 25038 ft 368 kts 165°
2026-05-08 03:05 38.85106 -88.33003 25028 ft 368 kts 165°
2026-05-08 03:05 38.82801 -88.31547 25024 ft 367 kts 165°
2026-05-08 03:05 38.80468 -88.30075 25024 ft 367 kts 165°
2026-05-08 03:05 38.78143 -88.28610 25038 ft 366 kts 165°
2026-05-08 03:06 38.75814 -88.27142 25027 ft 366 kts 165°
2026-05-08 03:06 38.73498 -88.25685 25033 ft 365 kts 165°
2026-05-08 03:06 38.71151 -88.24210 25035 ft 365 kts 165°
2026-05-08 03:06 38.68867 -88.22774 25038 ft 365 kts 165°
2026-05-08 03:07 38.66552 -88.21320 25031 ft 365 kts 165°
2026-05-08 03:07 38.64222 -88.19859 25038 ft 365 kts 165°
2026-05-08 03:07 38.61925 -88.18418 25037 ft 365 kts 165°
2026-05-08 03:07 38.59626 -88.16979 25036 ft 365 kts 165°
2026-05-08 03:08 38.57305 -88.15525 25030 ft 365 kts 165°
2026-05-08 03:08 38.55011 -88.14089 25031 ft 365 kts 165°
2026-05-08 03:08 38.52697 -88.12643 25038 ft 365 kts 165°
2026-05-08 03:08 38.50350 -88.11176 25022 ft 365 kts 165°
2026-05-08 03:09 38.48055 -88.09744 25020 ft 365 kts 165°
2026-05-08 03:09 38.45759 -88.08311 25037 ft 364 kts 165°
2026-05-08 03:09 38.43450 -88.06871 25035 ft 364 kts 165°
2026-05-08 03:09 38.41148 -88.05437 25032 ft 364 kts 165°
2026-05-08 03:10 38.38831 -88.03995 25033 ft 364 kts 165°
2026-05-08 03:10 38.36503 -88.02547 25026 ft 364 kts 165°
2026-05-08 03:10 38.34195 -88.01112 25034 ft 364 kts 165°
2026-05-08 03:10 38.31902 -87.99687 25034 ft 364 kts 166°
2026-05-08 03:11 38.29590 -87.98253 25035 ft 364 kts 165°
2026-05-08 03:11 38.27294 -87.96828 25032 ft 364 kts 166°
2026-05-08 03:11 38.24988 -87.95399 25037 ft 364 kts 165°
2026-05-08 03:11 38.22697 -87.93980 25043 ft 364 kts 165°
2026-05-08 03:12 38.20370 -87.92539 25033 ft 364 kts 165°
2026-05-08 03:12 38.18040 -87.91098 25040 ft 364 kts 165°
2026-05-08 03:12 38.15749 -87.89682 25066 ft 364 kts 165°
2026-05-08 03:12 38.13430 -87.88250 25059 ft 364 kts 166°
2026-05-08 03:13 38.11148 -87.86842 25046 ft 365 kts 165°
2026-05-08 03:13 38.08827 -87.85410 25060 ft 365 kts 166°
2026-05-08 03:13 38.06533 -87.83996 25053 ft 365 kts 165°
2026-05-08 03:13 38.04207 -87.82564 25049 ft 365 kts 166°
2026-05-08 03:14 38.01853 -87.81116 25057 ft 366 kts 166°
2026-05-08 03:14 37.99528 -87.79686 25056 ft 367 kts 165°
2026-05-08 03:14 37.97181 -87.78243 25070 ft 367 kts 165°
2026-05-08 03:14 37.94801 -87.76781 25072 ft 367 kts 166°
2026-05-08 03:15 37.92450 -87.75339 25067 ft 368 kts 165°
2026-05-08 03:15 37.90101 -87.73898 25063 ft 368 kts 165°
2026-05-08 03:15 37.87693 -87.72422 25063 ft 369 kts 166°
2026-05-08 03:15 37.85315 -87.70966 25069 ft 369 kts 166°
2026-05-08 03:16 37.82923 -87.69502 25066 ft 369 kts 165°
2026-05-08 03:16 37.80579 -87.68069 25064 ft 369 kts 165°
2026-05-08 03:16 37.78226 -87.66631 25073 ft 369 kts 166°
2026-05-08 03:16 37.75863 -87.65187 25063 ft 369 kts 165°
2026-05-08 03:17 37.73486 -87.63737 25076 ft 369 kts 165°
2026-05-08 03:17 37.71147 -87.62311 25070 ft 370 kts 166°
2026-05-08 03:17 37.68805 -87.60884 25078 ft 370 kts 165°
2026-05-08 03:17 37.66434 -87.59440 25072 ft 370 kts 166°
2026-05-08 03:18 37.64104 -87.58022 25061 ft 370 kts 166°
2026-05-08 03:18 37.61732 -87.56580 25075 ft 370 kts 166°
2026-05-08 03:18 37.59394 -87.55159 25079 ft 370 kts 166°
2026-05-08 03:18 37.57060 -87.53742 25076 ft 370 kts 166°
2026-05-08 03:19 37.54685 -87.52301 25073 ft 371 kts 165°
2026-05-08 03:19 37.52344 -87.50881 25082 ft 371 kts 166°
2026-05-08 03:19 37.50002 -87.49462 25077 ft 370 kts 166°
2026-05-08 03:19 37.47647 -87.48036 25070 ft 371 kts 166°
2026-05-08 03:20 37.45242 -87.46581 25089 ft 370 kts 166°
2026-05-08 03:20 37.42915 -87.45174 25066 ft 372 kts 166°
2026-05-08 03:20 37.40521 -87.43728 25074 ft 372 kts 166°
2026-05-08 03:20 37.38167 -87.42306 25083 ft 371 kts 166°
2026-05-08 03:21 37.35761 -87.40855 25078 ft 372 kts 166°
2026-05-08 03:21 37.33372 -87.39414 25081 ft 372 kts 166°
2026-05-08 03:21 37.30985 -87.37977 25086 ft 372 kts 166°
2026-05-08 03:21 37.28641 -87.36565 25069 ft 372 kts 166°
2026-05-08 03:22 37.26261 -87.35133 25085 ft 372 kts 166°
2026-05-08 03:22 37.23841 -87.33678 25077 ft 371 kts 166°
2026-05-08 03:22 37.21481 -87.32259 25053 ft 371 kts 167°
2026-05-08 03:22 37.19135 -87.30850 25063 ft 370 kts 167°
2026-05-08 03:23 37.16774 -87.29433 25064 ft 370 kts 167°
2026-05-08 03:23 37.14415 -87.28020 25059 ft 370 kts 166°
2026-05-08 03:23 37.12074 -87.26617 25070 ft 369 kts 167°
2026-05-08 03:23 37.09732 -87.25215 25071 ft 369 kts 166°
2026-05-08 03:24 37.07385 -87.23811 25075 ft 369 kts 166°
2026-05-08 03:24 37.05051 -87.22416 25071 ft 369 kts 167°
2026-05-08 03:24 37.02691 -87.21006 25080 ft 368 kts 167°
2026-05-08 03:24 37.00354 -87.19611 25071 ft 369 kts 166°
2026-05-08 03:25 36.98002 -87.18207 25067 ft 369 kts 167°
2026-05-08 03:25 36.95643 -87.16801 25075 ft 368 kts 166°
2026-05-08 03:25 36.93317 -87.15415 25073 ft 368 kts 167°
2026-05-08 03:25 36.90986 -87.14027 25074 ft 368 kts 167°
2026-05-08 03:26 36.88605 -87.12611 25064 ft 368 kts 166°
2026-05-08 03:26 36.86251 -87.11211 25077 ft 368 kts 167°
2026-05-08 03:26 36.83910 -87.09820 25063 ft 368 kts 166°
2026-05-08 03:26 36.81570 -87.08431 25073 ft 368 kts 167°
2026-05-08 03:27 36.79247 -87.07052 25060 ft 368 kts 167°
2026-05-08 03:27 36.76871 -87.05643 25053 ft 368 kts 167°
2026-05-08 03:27 36.74531 -87.04256 25064 ft 368 kts 167°
2026-05-08 03:27 36.72188 -87.02869 25067 ft 367 kts 167°
2026-05-08 03:28 36.69865 -87.01494 25058 ft 368 kts 167°
2026-05-08 03:28 36.67500 -87.00096 25064 ft 367 kts 167°
2026-05-08 03:28 36.65169 -86.98717 25064 ft 367 kts 167°
2026-05-08 03:28 36.62830 -86.97337 25070 ft 367 kts 167°
2026-05-08 03:29 36.60487 -86.95954 25071 ft 367 kts 167°
2026-05-08 03:29 36.58163 -86.94584 25068 ft 367 kts 167°
2026-05-08 03:29 36.55808 -86.93195 25062 ft 367 kts 167°
2026-05-08 03:29 36.53465 -86.91816 25071 ft 367 kts 167°
2026-05-08 03:30 36.48746 -86.89039 25066 ft 367 kts 167°
2026-05-08 03:30 36.44053 -86.86282 25074 ft 367 kts 167°
2026-05-08 03:31 36.39389 -86.83546 25076 ft 367 kts 167°
2026-05-08 03:31 36.34707 -86.80801 25077 ft 367 kts 167°
2026-05-08 03:32 36.32340 -86.79416 25074 ft 367 kts 167°
2026-05-08 03:32 36.30022 -86.78060 25077 ft 367 kts 167°
2026-05-08 03:32 36.27652 -86.76675 25085 ft 367 kts 167°
2026-05-08 03:32 36.25298 -86.75299 25086 ft 367 kts 167°
2026-05-08 03:33 36.22959 -86.73933 25089 ft 367 kts 167°
2026-05-08 03:33 36.20615 -86.72566 25097 ft 367 kts 167°
2026-05-08 03:33 36.18261 -86.71194 25097 ft 367 kts 167°
2026-05-08 03:33 36.15871 -86.69802 25089 ft 368 kts 167°
2026-05-08 03:34 36.13451 -86.68293 25084 ft 373 kts 163°
2026-05-08 03:34 36.11166 -86.66609 25088 ft 378 kts 159°
2026-05-08 03:34 36.08944 -86.64689 25083 ft 382 kts 155°
2026-05-08 03:34 36.06735 -86.62708 25087 ft 382 kts 155°
2026-05-08 03:35 36.04536 -86.60738 25090 ft 382 kts 155°
2026-05-08 03:35 36.02360 -86.58791 25101 ft 381 kts 155°
2026-05-08 03:35 36.00145 -86.56812 25090 ft 382 kts 154°
2026-05-08 03:35 35.97944 -86.54848 25083 ft 383 kts 155°
2026-05-08 03:36 35.95764 -86.52904 25096 ft 383 kts 155°
2026-05-08 03:36 35.93566 -86.50947 25086 ft 383 kts 155°
2026-05-08 03:36 35.91361 -86.48984 25092 ft 383 kts 154°
2026-05-08 03:36 35.89176 -86.47041 25088 ft 384 kts 155°
2026-05-08 03:37 35.86944 -86.45056 25080 ft 384 kts 155°
2026-05-08 03:37 35.84731 -86.43090 25095 ft 383 kts 155°
2026-05-08 03:37 35.82529 -86.41135 25086 ft 383 kts 155°
2026-05-08 03:37 35.80356 -86.39208 25084 ft 383 kts 155°
2026-05-08 03:38 35.78129 -86.37234 25093 ft 382 kts 155°
2026-05-08 03:38 35.75939 -86.35294 25088 ft 383 kts 155°
2026-05-08 03:38 35.73717 -86.33328 25064 ft 383 kts 156°
2026-05-08 03:38 35.71516 -86.31381 25071 ft 381 kts 156°
2026-05-08 03:39 35.69332 -86.29449 25080 ft 381 kts 156°
2026-05-08 03:39 35.67171 -86.27541 25059 ft 381 kts 156°
2026-05-08 03:39 35.64972 -86.25600 25058 ft 380 kts 156°
2026-05-08 03:39 35.62803 -86.23687 25070 ft 379 kts 156°
2026-05-08 03:40 35.60604 -86.21748 25077 ft 379 kts 156°
2026-05-08 03:40 35.58433 -86.19836 25062 ft 379 kts 156°
2026-05-08 03:40 35.56265 -86.17928 25057 ft 379 kts 156°
2026-05-08 03:40 35.54094 -86.16019 25066 ft 378 kts 156°
2026-05-08 03:41 35.51896 -86.14088 25071 ft 378 kts 156°
2026-05-08 03:41 35.49728 -86.12182 25064 ft 377 kts 157°
2026-05-08 03:41 35.47562 -86.10281 25075 ft 377 kts 156°
2026-05-08 03:41 35.45401 -86.08386 25066 ft 378 kts 156°
2026-05-08 03:42 35.43208 -86.06464 25060 ft 378 kts 156°
2026-05-08 03:42 35.41066 -86.04588 25071 ft 378 kts 157°
2026-05-08 03:42 35.38888 -86.02681 25080 ft 378 kts 157°
2026-05-08 03:42 35.36713 -86.00778 25066 ft 378 kts 156°
2026-05-08 03:43 35.34528 -85.98869 25075 ft 378 kts 156°
2026-05-08 03:43 35.32350 -85.96967 25082 ft 378 kts 157°
2026-05-08 03:43 35.30185 -85.95076 25077 ft 378 kts 157°
2026-05-08 03:43 35.28026 -85.93192 25072 ft 378 kts 157°
2026-05-08 03:44 35.25844 -85.91290 25077 ft 378 kts 157°
2026-05-08 03:44 35.23660 -85.89387 25072 ft 378 kts 157°
2026-05-08 03:44 35.21471 -85.87481 25079 ft 379 kts 157°
2026-05-08 03:44 35.19305 -85.85596 25076 ft 378 kts 157°
2026-05-08 03:45 35.17142 -85.83717 25065 ft 379 kts 156°
2026-05-08 03:45 35.14958 -85.81818 25077 ft 379 kts 157°
2026-05-08 03:45 35.12805 -85.79949 25064 ft 379 kts 156°
2026-05-08 03:45 35.10627 -85.78058 25075 ft 379 kts 157°
2026-05-08 03:46 35.08422 -85.76147 25074 ft 379 kts 157°
2026-05-08 03:46 35.06267 -85.74278 25076 ft 379 kts 158°
2026-05-08 03:46 35.04097 -85.72400 25080 ft 379 kts 157°
2026-05-08 03:46 35.01916 -85.70512 25078 ft 379 kts 157°
2026-05-08 03:47 34.99750 -85.68639 25082 ft 378 kts 157°
2026-05-08 03:47 34.97584 -85.66766 25068 ft 379 kts 158°
2026-05-08 03:47 34.95421 -85.64897 25064 ft 378 kts 157°
2026-05-08 03:47 34.93263 -85.63035 25073 ft 378 kts 157°
2026-05-08 03:48 34.91087 -85.61157 25077 ft 378 kts 158°
2026-05-08 03:48 34.88907 -85.59280 25077 ft 378 kts 157°
2026-05-08 03:48 34.86709 -85.57386 25077 ft 378 kts 157°
2026-05-08 03:48 34.84543 -85.55521 25070 ft 378 kts 157°
2026-05-08 03:49 34.82371 -85.53652 25080 ft 378 kts 158°
2026-05-08 03:49 34.80178 -85.51767 25073 ft 378 kts 157°
2026-05-08 03:49 34.78047 -85.49937 25079 ft 378 kts 158°
2026-05-08 03:49 34.75866 -85.48064 25059 ft 378 kts 157°
2026-05-08 03:50 34.73708 -85.46211 25063 ft 378 kts 158°
2026-05-08 03:50 34.71526 -85.44340 25086 ft 377 kts 158°
2026-05-08 03:50 34.69371 -85.42494 25082 ft 377 kts 158°
2026-05-08 03:50 34.67220 -85.40652 25067 ft 377 kts 158°
2026-05-08 03:51 34.65065 -85.38808 25073 ft 377 kts 158°
2026-05-08 03:51 34.62907 -85.36963 25061 ft 377 kts 158°
2026-05-08 03:51 34.60731 -85.35102 25075 ft 377 kts 158°
2026-05-08 03:51 34.58552 -85.33241 25062 ft 377 kts 158°
2026-05-08 03:52 34.56383 -85.31390 25046 ft 377 kts 158°
2026-05-08 03:52 34.54245 -85.29565 25049 ft 375 kts 159°
2026-05-08 03:52 34.52087 -85.27724 25044 ft 375 kts 159°
2026-05-08 03:52 34.49954 -85.25907 25050 ft 375 kts 158°
2026-05-08 03:53 34.47819 -85.24090 25050 ft 373 kts 158°
2026-05-08 03:53 34.45655 -85.22250 25038 ft 373 kts 158°
2026-05-08 03:53 34.43524 -85.20437 25060 ft 372 kts 158°
2026-05-08 03:53 34.41392 -85.18626 25051 ft 372 kts 159°
2026-05-08 03:54 34.39263 -85.16818 25058 ft 371 kts 158°
2026-05-08 03:54 34.37131 -85.15009 25036 ft 371 kts 158°
2026-05-08 03:54 34.35007 -85.13208 25048 ft 371 kts 158°
2026-05-08 03:54 34.32896 -85.11419 25056 ft 371 kts 158°
2026-05-08 03:55 34.30750 -85.09602 25057 ft 371 kts 158°
2026-05-08 03:55 34.28624 -85.07802 25057 ft 371 kts 158°
2026-05-08 03:55 34.26490 -85.05997 25048 ft 370 kts 158°
2026-05-08 03:55 34.24352 -85.04188 25039 ft 370 kts 158°
2026-05-08 03:56 34.22223 -85.02389 25061 ft 370 kts 158°
2026-05-08 03:56 34.20087 -85.00587 25052 ft 370 kts 158°
2026-05-08 03:56 34.17965 -84.98797 25039 ft 371 kts 158°
2026-05-08 03:56 34.15841 -84.97006 25042 ft 371 kts 158°
2026-05-08 03:57 34.13730 -84.95226 25050 ft 370 kts 158°
2026-05-08 03:57 34.11603 -84.93435 25031 ft 370 kts 158°
2026-05-08 03:57 34.09476 -84.91644 25045 ft 370 kts 158°
2026-05-08 03:57 34.07351 -84.89857 25046 ft 370 kts 158°
2026-05-08 03:58 34.05213 -84.88059 25037 ft 371 kts 158°
2026-05-08 03:58 34.03077 -84.86265 25056 ft 370 kts 159°
2026-05-08 03:58 34.00950 -84.84479 25042 ft 370 kts 158°
2026-05-08 03:58 33.98827 -84.82698 25039 ft 371 kts 158°
2026-05-08 03:59 33.96669 -84.80889 25047 ft 371 kts 158°
2026-05-08 03:59 33.94537 -84.79102 25044 ft 371 kts 158°
2026-05-08 03:59 33.92396 -84.77309 25033 ft 372 kts 158°
2026-05-08 03:59 33.90272 -84.75531 25039 ft 372 kts 158°
2026-05-08 04:00 33.88105 -84.73718 25048 ft 372 kts 158°
2026-05-08 04:00 33.85950 -84.71917 25044 ft 372 kts 158°
2026-05-08 04:00 33.83801 -84.70122 25045 ft 371 kts 158°
2026-05-08 04:00 33.81665 -84.68338 25042 ft 372 kts 158°
2026-05-08 04:01 33.79506 -84.66537 25036 ft 372 kts 158°
2026-05-08 04:01 33.77391 -84.64773 25040 ft 371 kts 158°
2026-05-08 04:01 33.75243 -84.62983 25035 ft 371 kts 158°
2026-05-08 04:01 33.73093 -84.61192 25043 ft 371 kts 158°
2026-05-08 04:02 33.70949 -84.59409 25043 ft 371 kts 158°
2026-05-08 04:02 33.68818 -84.57636 25032 ft 371 kts 158°
2026-05-08 04:02 33.66673 -84.55853 25033 ft 372 kts 158°
2026-05-08 04:02 33.64524 -84.54067 25043 ft 372 kts 158°
2026-05-08 04:03 33.62372 -84.52281 25032 ft 372 kts 158°
2026-05-08 04:03 33.58066 -84.48709 25033 ft 372 kts 158°
2026-05-08 04:03 33.55937 -84.46945 25040 ft 372 kts 158°
2026-05-08 04:04 33.53777 -84.45156 25048 ft 372 kts 158°
2026-05-08 04:04 33.51622 -84.43372 25048 ft 372 kts 158°
2026-05-08 04:04 33.49509 -84.41625 25056 ft 371 kts 158°
2026-05-08 04:04 33.47366 -84.39852 25048 ft 371 kts 158°
2026-05-08 04:05 33.45205 -84.38068 25051 ft 372 kts 158°
2026-05-08 04:05 33.43072 -84.36306 25052 ft 371 kts 157°
2026-05-08 04:05 33.40919 -84.34529 25057 ft 371 kts 158°
2026-05-08 04:05 33.38748 -84.32739 25044 ft 370 kts 158°
2026-05-08 04:06 33.36613 -84.30978 25043 ft 369 kts 158°
2026-05-08 04:06 33.34491 -84.29230 25036 ft 369 kts 159°
2026-05-08 04:06 33.32364 -84.27480 25042 ft 368 kts 158°
2026-05-08 04:06 33.30244 -84.25736 25044 ft 368 kts 158°
2026-05-08 04:07 33.28129 -84.23997 25036 ft 368 kts 158°
2026-05-08 04:07 33.25994 -84.22243 25042 ft 367 kts 158°
2026-05-08 04:07 33.23877 -84.20504 25029 ft 367 kts 158°
2026-05-08 04:07 33.21741 -84.18752 25033 ft 367 kts 158°
2026-05-08 04:08 33.19639 -84.17028 25023 ft 367 kts 158°
2026-05-08 04:08 33.17513 -84.15285 25030 ft 367 kts 158°
2026-05-08 04:08 33.15392 -84.13548 25038 ft 366 kts 158°
2026-05-08 04:08 33.13282 -84.11821 25038 ft 366 kts 158°
2026-05-08 04:09 33.11156 -84.10081 25022 ft 366 kts 158°
2026-05-08 04:09 33.09031 -84.08343 25025 ft 366 kts 158°
2026-05-08 04:09 33.06926 -84.06623 25030 ft 366 kts 158°
2026-05-08 04:09 33.04812 -84.04897 25032 ft 366 kts 158°
2026-05-08 04:10 33.02696 -84.03170 25034 ft 366 kts 158°
2026-05-08 04:10 33.00569 -84.01434 25028 ft 366 kts 158°
2026-05-08 04:10 32.98452 -83.99709 25037 ft 366 kts 158°
2026-05-08 04:10 32.96340 -83.97989 25027 ft 366 kts 158°
2026-05-08 04:11 32.94251 -83.96287 25027 ft 366 kts 158°
2026-05-08 04:11 32.92122 -83.94554 25026 ft 366 kts 158°
2026-05-08 04:11 32.90025 -83.92849 25020 ft 366 kts 158°
2026-05-08 04:11 32.87889 -83.91112 25026 ft 365 kts 158°
2026-05-08 04:12 32.85801 -83.89416 25030 ft 365 kts 158°
2026-05-08 04:12 32.83692 -83.87704 25023 ft 366 kts 158°
2026-05-08 04:12 32.81559 -83.85973 25027 ft 366 kts 158°
2026-05-08 04:12 32.79462 -83.84273 25028 ft 366 kts 158°
2026-05-08 04:13 32.77341 -83.82553 25026 ft 366 kts 158°
2026-05-08 04:13 32.75226 -83.80840 25026 ft 366 kts 158°
2026-05-08 04:13 32.73084 -83.79106 25025 ft 366 kts 158°
2026-05-08 04:13 32.70992 -83.77414 25029 ft 366 kts 158°
2026-05-08 04:14 32.68871 -83.75699 25027 ft 366 kts 158°
2026-05-08 04:14 32.66730 -83.73968 25020 ft 366 kts 158°
2026-05-08 04:14 32.64617 -83.72262 25021 ft 366 kts 158°
2026-05-08 04:14 32.62504 -83.70556 25015 ft 366 kts 158°
2026-05-08 04:15 32.60377 -83.68841 25021 ft 366 kts 158°
2026-05-08 04:15 32.58266 -83.67139 25023 ft 366 kts 158°
2026-05-08 04:15 32.56132 -83.65419 25022 ft 366 kts 158°
2026-05-08 04:15 32.54024 -83.63722 25024 ft 366 kts 158°
2026-05-08 04:16 32.51917 -83.62026 25015 ft 366 kts 158°
2026-05-08 04:16 32.49783 -83.60310 25018 ft 367 kts 158°
2026-05-08 04:16 32.47653 -83.58598 25019 ft 367 kts 158°
2026-05-08 04:16 32.45512 -83.56877 25015 ft 367 kts 158°
2026-05-08 04:17 32.43396 -83.55179 25019 ft 367 kts 157°
2026-05-08 04:17 32.41266 -83.53469 25011 ft 367 kts 157°
2026-05-08 04:17 32.39145 -83.51769 25018 ft 367 kts 157°
2026-05-08 04:17 32.37023 -83.50067 25003 ft 368 kts 157°
2026-05-08 04:18 32.34905 -83.48370 25013 ft 367 kts 157°
2026-05-08 04:18 32.32770 -83.46661 25013 ft 367 kts 157°
2026-05-08 04:18 32.30653 -83.44967 25009 ft 367 kts 157°
2026-05-08 04:18 32.28521 -83.43262 25012 ft 367 kts 157°
2026-05-08 04:19 32.26414 -83.41577 25013 ft 367 kts 158°
2026-05-08 04:19 32.24266 -83.39862 25010 ft 367 kts 157°
2026-05-08 04:19 32.22166 -83.38186 25010 ft 367 kts 157°
2026-05-08 04:19 32.20021 -83.36475 25014 ft 367 kts 157°
2026-05-08 04:20 32.17887 -83.34773 25002 ft 368 kts 158°
2026-05-08 04:20 32.15749 -83.33068 24994 ft 367 kts 158°
2026-05-08 04:20 32.13623 -83.31374 24990 ft 366 kts 158°
2026-05-08 04:20 32.11485 -83.29672 24996 ft 365 kts 158°
2026-05-08 04:21 32.09385 -83.28002 24986 ft 365 kts 158°
2026-05-08 04:21 32.07268 -83.26318 24994 ft 364 kts 158°
2026-05-08 04:21 32.05172 -83.24653 24982 ft 364 kts 158°
2026-05-08 04:21 32.03057 -83.22973 24982 ft 363 kts 158°
2026-05-08 04:22 32.00954 -83.21304 24994 ft 363 kts 158°
2026-05-08 04:22 31.98853 -83.19637 24984 ft 363 kts 158°
2026-05-08 04:22 31.96751 -83.17971 24990 ft 363 kts 158°
2026-05-08 04:22 31.94657 -83.16312 24990 ft 363 kts 158°
2026-05-08 04:23 31.92534 -83.14631 24990 ft 363 kts 158°
2026-05-08 04:23 31.90423 -83.12960 24989 ft 363 kts 158°
2026-05-08 04:23 31.88307 -83.11286 24984 ft 363 kts 158°
2026-05-08 04:23 31.86198 -83.09619 24988 ft 364 kts 158°
2026-05-08 04:24 31.84101 -83.07961 24997 ft 363 kts 158°
2026-05-08 04:24 31.81979 -83.06286 24987 ft 364 kts 158°
2026-05-08 04:24 31.79859 -83.04613 24981 ft 364 kts 158°
2026-05-08 04:24 31.77798 -83.02987 24989 ft 364 kts 158°
2026-05-08 04:25 31.75684 -83.01321 24983 ft 365 kts 158°
2026-05-08 04:25 31.73579 -82.99662 24989 ft 364 kts 158°
2026-05-08 04:25 31.71460 -82.97993 24980 ft 365 kts 158°
2026-05-08 04:25 31.69323 -82.96310 24991 ft 365 kts 158°
2026-05-08 04:26 31.67245 -82.94676 24983 ft 365 kts 158°
2026-05-08 04:26 31.65138 -82.93020 24985 ft 365 kts 158°
2026-05-08 04:26 31.62993 -82.91335 24987 ft 365 kts 158°
2026-05-08 04:26 31.60867 -82.89665 24981 ft 366 kts 157°
2026-05-08 04:27 31.58723 -82.87981 24998 ft 365 kts 158°
2026-05-08 04:27 31.56588 -82.86307 24999 ft 365 kts 158°
2026-05-08 04:27 31.54436 -82.84620 24995 ft 365 kts 158°
2026-05-08 04:27 31.52446 -82.83061 24995 ft 365 kts 158°
2026-05-08 04:28 31.50293 -82.81375 25006 ft 365 kts 157°
2026-05-08 04:28 31.48176 -82.79718 24997 ft 366 kts 157°
2026-05-08 04:28 31.46043 -82.78050 25005 ft 366 kts 157°
2026-05-08 04:28 31.43919 -82.76389 24993 ft 366 kts 157°
2026-05-08 04:29 31.41754 -82.74696 24991 ft 366 kts 157°
2026-05-08 04:29 31.39651 -82.73055 24996 ft 366 kts 157°
2026-05-08 04:29 31.37500 -82.71375 24990 ft 366 kts 157°
2026-05-08 04:29 31.35365 -82.69710 24993 ft 366 kts 157°
2026-05-08 04:30 31.33230 -82.68046 24993 ft 366 kts 157°
2026-05-08 04:30 31.31091 -82.66379 24993 ft 366 kts 157°
2026-05-08 04:30 31.28945 -82.64708 24982 ft 367 kts 157°
2026-05-08 04:30 31.26799 -82.63037 24987 ft 367 kts 157°
2026-05-08 04:31 31.24647 -82.61362 24982 ft 367 kts 157°
2026-05-08 04:31 31.22482 -82.59679 24982 ft 367 kts 156°
2026-05-08 04:31 31.20497 -82.58137 24984 ft 367 kts 156°
2026-05-08 04:31 31.18366 -82.56481 24984 ft 367 kts 157°
2026-05-08 04:32 31.16237 -82.54829 24990 ft 367 kts 157°
2026-05-08 04:32 31.14080 -82.53155 24987 ft 367 kts 157°
2026-05-08 04:32 31.11949 -82.51503 24983 ft 367 kts 157°
2026-05-08 04:32 31.09793 -82.49832 24990 ft 367 kts 157°
2026-05-08 04:33 31.07669 -82.48188 24991 ft 367 kts 156°
2026-05-08 04:33 31.05496 -82.46505 24983 ft 367 kts 157°
2026-05-08 04:33 31.03344 -82.44840 24982 ft 367 kts 156°
2026-05-08 04:33 31.01195 -82.43179 24984 ft 367 kts 157°
2026-05-08 04:34 30.99054 -82.41524 24979 ft 368 kts 156°
2026-05-08 04:34 30.96920 -82.39876 24982 ft 368 kts 157°
2026-05-08 04:34 30.94754 -82.38204 24978 ft 368 kts 156°
2026-05-08 04:34 30.92632 -82.36567 24982 ft 368 kts 156°
2026-05-08 04:35 30.90461 -82.34892 24982 ft 368 kts 157°
2026-05-08 04:35 30.88277 -82.33209 24968 ft 367 kts 157°
2026-05-08 04:35 30.86091 -82.31524 24965 ft 366 kts 157°
2026-05-08 04:35 30.83956 -82.29881 24962 ft 366 kts 157°
2026-05-08 04:36 30.81822 -82.28238 24970 ft 365 kts 157°
2026-05-08 04:36 30.79675 -82.26587 24976 ft 364 kts 156°
2026-05-08 04:36 30.77549 -82.24953 24970 ft 364 kts 157°
2026-05-08 04:36 30.75596 -82.23453 24972 ft 364 kts 157°
2026-05-08 04:37 30.73465 -82.21818 24968 ft 363 kts 157°
2026-05-08 04:37 30.71324 -82.20174 24971 ft 363 kts 157°
2026-05-08 04:37 30.69149 -82.18507 24973 ft 363 kts 156°
2026-05-08 04:37 30.67094 -82.16931 24972 ft 363 kts 157°
2026-05-08 04:38 30.64987 -82.15318 24978 ft 363 kts 157°
2026-05-08 04:38 30.63376 -82.14084 24973 ft 363 kts 157°
2026-05-08 04:38 30.61191 -82.12412 24972 ft 363 kts 156°
2026-05-08 04:38 30.59099 -82.10811 24975 ft 363 kts 157°
2026-05-08 04:39 30.56971 -82.09184 24981 ft 362 kts 157°
2026-05-08 04:39 30.54818 -82.07539 24972 ft 363 kts 157°
2026-05-08 04:39 30.52710 -82.05928 24988 ft 362 kts 156°
2026-05-08 04:39 30.50565 -82.04291 24979 ft 363 kts 156°
2026-05-08 04:40 30.48409 -82.02647 24991 ft 362 kts 156°
2026-05-08 04:40 30.46317 -82.01051 24990 ft 363 kts 156°
2026-05-08 04:40 30.44170 -81.99415 24999 ft 363 kts 157°
2026-05-08 04:40 30.42031 -81.97786 24996 ft 363 kts 156°
2026-05-08 04:41 30.39914 -81.96174 24996 ft 363 kts 156°
2026-05-08 04:41 30.37765 -81.94539 25003 ft 363 kts 156°
2026-05-08 04:41 30.35633 -81.92918 25001 ft 363 kts 156°
2026-05-08 04:41 30.33475 -81.91277 24997 ft 363 kts 156°
2026-05-08 04:42 30.31339 -81.89655 24997 ft 363 kts 156°
2026-05-08 04:42 30.29222 -81.88047 25002 ft 363 kts 156°
2026-05-08 04:42 30.27086 -81.86426 25004 ft 363 kts 156°
2026-05-08 04:42 30.24949 -81.84805 24999 ft 363 kts 156°
2026-05-08 04:43 30.22839 -81.83205 25001 ft 363 kts 156°
2026-05-08 04:43 30.20701 -81.81586 24999 ft 364 kts 156°
2026-05-08 04:43 30.18559 -81.79964 24996 ft 364 kts 156°
2026-05-08 04:43 30.16429 -81.78351 25000 ft 364 kts 156°
2026-05-08 04:44 30.14263 -81.76712 24999 ft 363 kts 156°
2026-05-08 04:44 30.12095 -81.75073 24997 ft 363 kts 156°
2026-05-08 04:44 30.09950 -81.73452 24994 ft 364 kts 156°
2026-05-08 04:44 30.07782 -81.71815 24994 ft 363 kts 156°
2026-05-08 04:45 30.05657 -81.70210 24996 ft 364 kts 156°
2026-05-08 04:45 30.03490 -81.68576 24992 ft 363 kts 156°
2026-05-08 04:45 30.01339 -81.66954 24989 ft 363 kts 156°
2026-05-08 04:45 29.99187 -81.65332 24981 ft 363 kts 156°
2026-05-08 04:46 29.97074 -81.63740 24983 ft 363 kts 156°
2026-05-08 04:46 29.94892 -81.62097 24989 ft 363 kts 156°
2026-05-08 04:46 29.92718 -81.60461 24986 ft 363 kts 156°
2026-05-08 04:46 29.90547 -81.58829 24979 ft 365 kts 156°
2026-05-08 04:47 29.88377 -81.57198 24989 ft 367 kts 156°
2026-05-08 04:47 29.86195 -81.55559 24997 ft 368 kts 156°
2026-05-08 04:47 29.84002 -81.53912 24990 ft 370 kts 156°
2026-05-08 04:47 29.81803 -81.52262 24987 ft 371 kts 155°
2026-05-08 04:48 29.79616 -81.50622 24993 ft 372 kts 156°
2026-05-08 04:48 29.77396 -81.48957 24993 ft 372 kts 156°
2026-05-08 04:48 29.75213 -81.47322 24991 ft 372 kts 156°
2026-05-08 04:48 29.73006 -81.45669 24992 ft 372 kts 155°
2026-05-08 04:49 29.70785 -81.44007 24986 ft 373 kts 155°
2026-05-08 04:49 29.68590 -81.42364 24991 ft 373 kts 155°
2026-05-08 04:49 29.66373 -81.40707 24996 ft 373 kts 155°
2026-05-08 04:49 29.64152 -81.39047 24988 ft 373 kts 155°
2026-05-08 04:50 29.61908 -81.37370 24993 ft 373 kts 155°
2026-05-08 04:50 29.59697 -81.35720 24993 ft 373 kts 155°
2026-05-08 04:50 29.57488 -81.34071 24988 ft 373 kts 156°
2026-05-08 04:50 29.55271 -81.32417 24986 ft 372 kts 155°
2026-05-08 04:51 29.53059 -81.30768 24980 ft 371 kts 155°
2026-05-08 04:51 29.50931 -81.29182 24986 ft 371 kts 156°
2026-05-08 04:51 29.48887 -81.27661 24987 ft 370 kts 155°
2026-05-08 04:51 29.46691 -81.26034 24990 ft 370 kts 156°
2026-05-08 04:52 29.44519 -81.24425 24988 ft 369 kts 155°
2026-05-08 04:52 29.42600 -81.23003 24989 ft 369 kts 155°
2026-05-08 04:52 29.40536 -81.21471 24991 ft 369 kts 155°
2026-05-08 04:52 29.38575 -81.20017 24984 ft 369 kts 155°
2026-05-08 04:53 29.36383 -81.18391 24985 ft 369 kts 155°
2026-05-08 04:53 29.34155 -81.16739 24984 ft 369 kts 155°
2026-05-08 04:53 29.31960 -81.15124 24980 ft 368 kts 156°
2026-05-08 04:53 29.29790 -81.13741 24983 ft 363 kts 162°
2026-05-08 04:54 29.27456 -81.12547 24986 ft 358 kts 168°
2026-05-08 04:54 29.25092 -81.11563 24986 ft 356 kts 170°
2026-05-08 04:54 29.23286 -81.10841 24979 ft 356 kts 170°
2026-05-08 04:54 29.21501 -81.10127 24980 ft 356 kts 170°
2026-05-08 04:55 29.19121 -81.09174 24984 ft 355 kts 170°
2026-05-08 04:55 29.16715 -81.08210 24980 ft 355 kts 169°
2026-05-08 04:55 29.14272 -81.07232 24980 ft 355 kts 170°
2026-05-08 04:55 29.11945 -81.06300 24979 ft 355 kts 170°
2026-05-08 04:56 29.09543 -81.05338 24980 ft 356 kts 169°
2026-05-08 04:56 29.07153 -81.04382 24986 ft 356 kts 169°
2026-05-08 04:56 29.04750 -81.03420 24986 ft 356 kts 169°
2026-05-08 04:56 29.02334 -81.02454 24978 ft 356 kts 169°
2026-05-08 04:57 28.99940 -81.01498 24981 ft 356 kts 169°
2026-05-08 04:57 28.97529 -81.00534 24978 ft 356 kts 169°
2026-05-08 04:57 28.95113 -80.99570 24978 ft 356 kts 169°
2026-05-08 04:57 28.92708 -80.98610 24976 ft 356 kts 169°
2026-05-08 04:58 28.90353 -80.97670 24982 ft 356 kts 169°
2026-05-08 04:58 28.87970 -80.96720 24976 ft 357 kts 169°
2026-05-08 04:58 28.85587 -80.95771 24972 ft 357 kts 169°
2026-05-08 04:58 28.83196 -80.94819 24975 ft 356 kts 169°
2026-05-08 04:59 28.81257 -80.94047 24972 ft 357 kts 169°
2026-05-08 04:59 28.78853 -80.93090 24977 ft 357 kts 169°
2026-05-08 04:59 28.76463 -80.92139 24974 ft 357 kts 169°
2026-05-08 04:59 28.74035 -80.91174 24978 ft 357 kts 169°
2026-05-08 05:00 28.71627 -80.90217 24975 ft 357 kts 168°
2026-05-08 05:00 28.69295 -80.89291 24986 ft 357 kts 168°
2026-05-08 05:00 28.66913 -80.88345 24985 ft 358 kts 168°
2026-05-08 05:00 28.64530 -80.87400 24987 ft 358 kts 168°
2026-05-08 05:01 28.62157 -80.86459 24985 ft 358 kts 168°
2026-05-08 05:01 28.59783 -80.85517 24988 ft 358 kts 168°
2026-05-08 05:01 28.57662 -80.84677 24983 ft 359 kts 168°
2026-05-08 05:01 28.56501 -80.84217 24985 ft 359 kts 168°
2026-05-08 05:02 28.54094 -80.83263 24996 ft 358 kts 168°
2026-05-08 05:02 28.51811 -80.82360 24995 ft 359 kts 168°
2026-05-08 05:02 28.49681 -80.81518 24997 ft 359 kts 168°
2026-05-08 05:02 28.47244 -80.80554 24995 ft 359 kts 168°
2026-05-08 05:03 28.44826 -80.79598 24998 ft 359 kts 168°
2026-05-08 05:03 28.42417 -80.78647 24998 ft 359 kts 168°
2026-05-08 05:03 28.39977 -80.77683 25000 ft 359 kts 168°
2026-05-08 05:03 28.37530 -80.76717 25000 ft 360 kts 168°
2026-05-08 05:04 28.35111 -80.75763 25002 ft 360 kts 168°
2026-05-08 05:04 28.32671 -80.74801 24998 ft 360 kts 168°
2026-05-08 05:04 28.30241 -80.73843 24998 ft 360 kts 168°
2026-05-08 05:04 28.27809 -80.72886 24998 ft 360 kts 168°
2026-05-08 05:05 28.25423 -80.71947 25003 ft 360 kts 167°
2026-05-08 05:05 28.23023 -80.71002 25001 ft 360 kts 168°
2026-05-08 05:05 28.20599 -80.70049 25001 ft 360 kts 168°
2026-05-08 05:05 28.18190 -80.69102 25002 ft 360 kts 168°
2026-05-08 05:06 28.15782 -80.68156 25004 ft 361 kts 167°
2026-05-08 05:06 28.13370 -80.67208 25003 ft 361 kts 168°
2026-05-08 05:06 28.10974 -80.66267 25006 ft 361 kts 167°
2026-05-08 05:06 28.08544 -80.65314 25007 ft 361 kts 167°
2026-05-08 05:07 28.06154 -80.64377 25009 ft 361 kts 167°
2026-05-08 05:07 28.03702 -80.63416 25006 ft 362 kts 167°
2026-05-08 05:07 28.01282 -80.62468 25007 ft 362 kts 167°
2026-05-08 05:07 27.98882 -80.61528 25010 ft 362 kts 167°
2026-05-08 05:08 27.96461 -80.60580 25007 ft 362 kts 167°
2026-05-08 05:08 27.94046 -80.59636 25010 ft 362 kts 167°
2026-05-08 05:08 27.91647 -80.58697 25009 ft 362 kts 167°
2026-05-08 05:08 27.89198 -80.57740 25006 ft 362 kts 167°
2026-05-08 05:09 27.86744 -80.56781 25005 ft 362 kts 167°
2026-05-08 05:09 27.84317 -80.55833 25004 ft 362 kts 167°
2026-05-08 05:09 27.82060 -80.54951 25003 ft 362 kts 167°
2026-05-08 05:09 27.79655 -80.54012 25006 ft 362 kts 167°
2026-05-08 05:10 27.77213 -80.53060 25007 ft 362 kts 167°
2026-05-08 05:10 27.72422 -80.51234 25002 ft 359 kts 171°
2026-05-08 05:10 27.70813 -80.50942 25002 ft 351 kts 183°
2026-05-08 05:11 27.68565 -80.51118 25012 ft 339 kts 199°
2026-05-08 05:11 27.66356 -80.52013 25014 ft 327 kts 214°
2026-05-08 05:11 27.64569 -80.53293 24931 ft 325 kts 220°
2026-05-08 05:11 27.64094 -80.53657 24815 ft 326 kts 221°
2026-05-08 05:12 27.63128 -80.54413 24624 ft 327 kts 221°
2026-05-08 05:12 27.61297 -80.55845 24275 ft 327 kts 221°
2026-05-08 05:12 27.59401 -80.57320 23913 ft 327 kts 221°
2026-05-08 05:12 27.57748 -80.58602 23599 ft 327 kts 221°
2026-05-08 05:13 27.56353 -80.59683 23334 ft 327 kts 221°
2026-05-08 05:13 27.54425 -80.61176 22972 ft 327 kts 220°
2026-05-08 05:13 27.52502 -80.62663 22609 ft 327 kts 220°
2026-05-08 05:13 27.50555 -80.64167 22244 ft 327 kts 220°
2026-05-08 05:14 27.48616 -80.65664 21879 ft 327 kts 220°
2026-05-08 05:14 27.46683 -80.67155 21520 ft 327 kts 220°
2026-05-08 05:14 27.44729 -80.68617 21139 ft 329 kts 216°
2026-05-08 05:14 27.42476 -80.69509 20738 ft 341 kts 195°
2026-05-08 05:15 27.40035 -80.69661 20396 ft 344 kts 187°
2026-05-08 05:15 27.37590 -80.69696 20029 ft 342 kts 186°
2026-05-08 05:15 27.35167 -80.69723 19661 ft 340 kts 186°
2026-05-08 05:15 27.32761 -80.69754 19300 ft 338 kts 186°
2026-05-08 05:16 27.30374 -80.69788 18951 ft 336 kts 186°
2026-05-08 05:16 27.27971 -80.69823 18581 ft 335 kts 186°
2026-05-08 05:16 27.25606 -80.69860 18217 ft 334 kts 186°
2026-05-08 05:16 27.23201 -80.69898 17861 ft 333 kts 186°
2026-05-08 05:17 27.20828 -80.69935 17506 ft 332 kts 186°
2026-05-08 05:17 27.18459 -80.69972 17153 ft 331 kts 186°
2026-05-08 05:17 27.16104 -80.70010 16773 ft 330 kts 186°
2026-05-08 05:17 27.13731 -80.69994 16393 ft 333 kts 179°
2026-05-08 05:18 27.11446 -80.69211 15991 ft 341 kts 155°
2026-05-08 05:18 27.09566 -80.67513 15628 ft 345 kts 134°
2026-05-08 05:18 27.08010 -80.65356 15282 ft 344 kts 128°
2026-05-08 05:18 27.06491 -80.63258 14914 ft 338 kts 138°
2026-05-08 05:19 27.04555 -80.61701 14558 ft 327 kts 150°
2026-05-08 05:19 27.02601 -80.60292 14190 ft 321 kts 149°
2026-05-08 05:19 27.00695 -80.58909 13827 ft 316 kts 149°
2026-05-08 05:19 26.98811 -80.57536 13458 ft 312 kts 149°
2026-05-08 05:20 26.96927 -80.56160 13083 ft 309 kts 149°
2026-05-08 05:20 26.95089 -80.54813 12706 ft 306 kts 148°
2026-05-08 05:20 26.93271 -80.53481 12341 ft 304 kts 148°
2026-05-08 05:20 26.91458 -80.52153 11982 ft 302 kts 148°
2026-05-08 05:21 26.89667 -80.50842 11616 ft 301 kts 148°
2026-05-08 05:21 26.87874 -80.49529 11251 ft 300 kts 148°
2026-05-08 05:21 26.86052 -80.48196 10875 ft 298 kts 148°
2026-05-08 05:21 26.84288 -80.46881 10512 ft 298 kts 144°
2026-05-08 05:22 26.82966 -80.45188 10121 ft 299 kts 118°
2026-05-08 05:22 26.82389 -80.42928 9706 ft 293 kts 93°
2026-05-08 05:22 26.82615 -80.40685 9071 ft 285 kts 77°
2026-05-08 05:22 26.82990 -80.38503 8242 ft 286 kts 80°
2026-05-08 05:23 26.83158 -80.37114 7736 ft 286 kts 82°
2026-05-08 05:23 26.83340 -80.35072 7360 ft 272 kts 84°
2026-05-08 05:23 26.83472 -80.33284 7032 ft 264 kts 84°
2026-05-08 05:23 26.83577 -80.31227 6641 ft 256 kts 92°
2026-05-08 05:24 26.83098 -80.29267 6249 ft 250 kts 117°
2026-05-08 05:24 26.81964 -80.27784 5875 ft 245 kts 144°
2026-05-08 05:24 26.80396 -80.27021 5509 ft 240 kts 170°
2026-05-08 05:24 26.78709 -80.27089 5138 ft 235 kts 196°
2026-05-08 05:25 26.77250 -80.27917 4775 ft 230 kts 220°
2026-05-08 05:25 26.76237 -80.29318 4413 ft 227 kts 244°
2026-05-08 05:25 26.75824 -80.31024 4054 ft 223 kts 267°
2026-05-08 05:25 26.75988 -80.32728 3696 ft 218 kts 281°
2026-05-08 05:26 26.76276 -80.34408 3327 ft 215 kts 281°
2026-05-08 05:26 26.76562 -80.36083 2954 ft 213 kts 281°
2026-05-08 05:26 26.76843 -80.37730 2585 ft 211 kts 280°
2026-05-08 05:26 26.77114 -80.39333 2221 ft 209 kts 279°
2026-05-08 05:27 26.77586 -80.40886 1849 ft 209 kts 300°
2026-05-08 05:27 26.78639 -80.42026 1595 ft 205 kts 329°
2026-05-08 05:27 26.79983 -80.42444 1557 ft 191 kts 356°
2026-05-08 05:27 26.81259 -80.42170 1547 ft 177 kts 23°
2026-05-08 05:28 26.82241 -80.41381 1550 ft 171 kts 47°
2026-05-08 05:28 26.82885 -80.40169 1576 ft 186 kts 73°
2026-05-08 05:28 26.83079 -80.38652 1581 ft 200 kts 88°
2026-05-08 05:28 26.83184 -80.37039 1572 ft 208 kts 88°
2026-05-08 05:29 26.83304 -80.35426 1563 ft 205 kts 88°
2026-05-08 05:29 26.83426 -80.33830 1551 ft 192 kts 88°
2026-05-08 05:29 26.83533 -80.32455 1524 ft 155 kts 89°
2026-05-08 05:29 26.83622 -80.31297 1560 ft 143 kts 89°
2026-05-08 05:30 26.83706 -80.30177 1571 ft 139 kts 88°
2026-05-08 05:30 26.83787 -80.29092 1521 ft 140 kts 88°
2026-05-08 05:30 26.83864 -80.27987 1186 ft 136 kts 89°
2026-05-08 05:30 26.83934 -80.26937 891 ft 128 kts 90°
2026-05-08 05:31 26.84013 -80.25969 673 ft 117 kts 88°
2026-05-08 05:31 26.84091 -80.25044 465 ft 115 kts 89°
2026-05-08 05:31 26.84153 -80.24136 322 ft 114 kts 89°
2026-05-08 05:31 26.84213 -80.23254 134 ft 107 kts 89°
2026-05-08 05:32 26.84273 -80.22435 28 ft 98 kts 88°
2026-05-08 05:32 26.84313 -80.21871 25 ft 44 kts 88°
2026-05-08 05:32 26.84361 -80.21668 25 ft 20 kts 314°
2026-05-08 05:32 26.84388 -80.21713 25 ft 13 kts 313°
2026-05-08 05:33 26.84404 -80.21788 25 ft 10 kts 258°
2026-05-08 05:33 26.84393 -80.21891 25 ft 15 kts 266°
2026-05-08 05:33 26.84452 -80.21986 25 ft 10 kts 39°
2026-05-08 05:33 26.84517 -80.21999 25 ft 3 kts 46°
2026-05-08 05:34 26.84517 -80.21997 25 ft 0 kts 47°